Weather History for Spokane Fairchild, WA

Change the Weather History Date:

Tuesday, May 21, 2013

  Actual Average Record
Temperature  
Mean Temperature 54 °F -  
Max Temperature 72 °F 63 °F 74 °F (2014)
Min Temperature 37 °F 43 °F 35 °F (2007)
Degree Days  
Heating Degree Days 12    
Growing Degree Days 4 (Base 50)    
Moisture  
Dew Point 42 °F    
Average Humidity 85    
Maximum Humidity 100    
Minimum Humidity 39    
Precipitation  
Precipitation 0.18 in - - ()
Sea Level Pressure  
Sea Level Pressure 29.75 in    
Wind  
Wind Speed 11 mph (SSE)    
Max Wind Speed 33 mph    
Max Gust Speed 43 mph    
Visibility 7 miles    
Events Fog , Rain    
Averages and records for this station are not official NWS values.
T = Trace of Precipitation, MM = Missing Value Source: NWS Daily Summary

Daily Weather History Graph

Daily Weather History Graph

Search for Another Location

Airport:

Trip Planner

Search our weather history database for the weather conditions in past years. The results will help you decide how hot, cold, wet, or windy it might be!

Date:

Astronomy

May. 21, 2013 Rise Set
Actual Time 5:05 AM PDT 8:29 PM PDT
Civil Twilight 4:28 AM PDT 9:07 PM PDT
Nautical Twilight 3:38 AM PDT 9:57 PM PDT
Astronomical Twilight 2:34 AM PDT 11:02 PM PDT
Moon 4:34 PM PDT (5/21) 2:53 AM PDT (5/21)
Length of Visible Light 16h 38m
Length of Day
15h 23m
Waxing Gibbous, 85% of the Moon is Illuminated
May 21
Waxing Gibbous
May 24
Full
May 31
Last Quarter
Jun 8
New
Jun 16
First Quarter

Hourly Weather History & Observations

Time (PDT) Temp. Windchill Dew Point Humidity Pressure Visibility Wind Dir Wind Speed Gust Speed Precip Events Conditions
12:58 AM 54.0 °F - 43.7 °F 68% 29.85 in 10.0 mi Calm Calm - N/A   Clear
1:58 AM 49.1 °F - 44.2 °F 83% 29.84 in 10.0 mi East 3.5 mph - N/A   Clear
2:58 AM 48.7 °F - 44.4 °F 85% 29.81 in 10.0 mi NE 6.9 mph - N/A   Clear
3:58 AM 50.2 °F - 46.0 °F 86% 29.77 in 10.0 mi NE 6.9 mph - N/A   Clear
4:58 AM 48.7 °F - 45.3 °F 88% 29.74 in 10.0 mi NE 6.9 mph - N/A   Clear
5:58 AM 48.7 °F - 45.3 °F 88% 29.73 in 10.0 mi NE 8.1 mph - N/A   Clear
6:58 AM 54.7 °F - 46.4 °F 74% 29.70 in 10.0 mi NE 6.9 mph - N/A   Scattered Clouds
7:58 AM 63.1 °F - 44.6 °F 51% 29.68 in 10.0 mi ENE 13.8 mph - N/A   Mostly Cloudy
8:58 AM 64.9 °F - 44.6 °F 48% 29.67 in 10.0 mi East 9.2 mph - N/A   Mostly Cloudy
9:58 AM 69.6 °F - 46.0 °F 43% 29.64 in 10.0 mi East 10.4 mph - N/A   Scattered Clouds
10:52 AM 69.8 °F - 44.6 °F 40% 29.65 in 10.0 mi SE 13.8 mph - N/A   Overcast
10:58 AM 70.7 °F - 44.2 °F 39% 29.62 in 10.0 mi SSE 17.3 mph 20.7 mph N/A   Overcast
11:48 AM 66.2 °F - 48.2 °F 52% 29.63 in 10.0 mi SSW 17.3 mph - N/A   Light Drizzle
11:58 AM 65.5 °F - 48.0 °F 53% 29.62 in 10.0 mi SSW 17.3 mph - 0.00 in   Light Drizzle
11:59 AM 64.4 °F - 48.2 °F 56% 29.63 in 10.0 mi SSW 16.1 mph - N/A   Overcast
12:58 PM 63.0 °F - 44.4 °F 51% 29.62 in 10.0 mi SSW 15.0 mph - 0.00 in   Mostly Cloudy
1:59 PM 62.6 °F - 43.0 °F 49% 29.63 in 10.0 mi South 17.3 mph 24.2 mph N/A   Mostly Cloudy
2:04 PM 62.6 °F - 44.6 °F 52% 29.64 in 10.0 mi South 16.1 mph - N/A Rain Light Rain
2:15 PM 66.2 °F - 44.6 °F 46% 29.64 in 10.0 mi SSE 18.4 mph 24.2 mph N/A   Mostly Cloudy
2:23 PM 64.4 °F - 46.4 °F 52% 29.65 in 10.0 mi South 20.7 mph 28.8 mph N/A Rain Light Rain
2:34 PM 64.4 °F - 46.4 °F 52% 29.67 in 10.0 mi SSW 29.9 mph 39.1 mph N/A Rain Light Rain
2:52 PM 55.4 °F - 48.2 °F 77% 29.69 in 10.0 mi SSW 33.4 mph 42.6 mph N/A Rain Light Rain
2:55 PM 55.4 °F - 48.2 °F 77% 29.69 in 10.0 mi SW 31.1 mph 42.6 mph N/A Rain Light Rain
2:58 PM 55.2 °F - 47.7 °F 76% 29.70 in 10.0 mi SW 31.1 mph 42.6 mph 0.00 in Rain Light Rain
3:07 PM 51.8 °F - 44.6 °F 76% 29.71 in 10.0 mi SSW 29.9 mph 40.3 mph N/A Rain Light Rain
3:16 PM 50.0 °F - 44.6 °F 82% 29.72 in 10.0 mi SSW 29.9 mph 35.7 mph N/A Rain Light Rain
3:17 PM 50.0 °F - 44.6 °F 82% 29.72 in 10.0 mi SSW 29.9 mph 35.7 mph N/A Rain Light Rain
3:39 PM 50.0 °F - 44.6 °F 82% 29.73 in 10.0 mi SW 24.2 mph 35.7 mph N/A   Overcast
3:58 PM 49.1 °F - 42.4 °F 78% 29.75 in 10.0 mi SW 21.9 mph - 0.00 in   Overcast
4:00 PM 48.2 °F - 42.8 °F 82% 29.73 in 10.0 mi SW 25.3 mph 31.1 mph N/A   Overcast
4:01 PM 48.2 °F - 42.8 °F 82% 29.73 in 10.0 mi SW 24.2 mph 31.1 mph N/A   Overcast
4:27 PM 50.0 °F - 42.8 °F 76% 29.73 in 10.0 mi SW 18.4 mph - N/A Rain Light Rain
4:42 PM 48.2 °F - 42.8 °F 82% 29.74 in 10.0 mi SW 19.6 mph - N/A   Overcast
4:58 PM 47.8 °F - 42.8 °F 83% 29.76 in 10.0 mi SSW 16.1 mph - 0.00 in   Overcast
5:34 PM 46.4 °F 39.8 °F 42.8 °F 87% 29.77 in 10.0 mi South 16.1 mph 21.9 mph N/A Rain Light Rain
5:35 PM 46.4 °F 39.2 °F 42.8 °F 87% 29.78 in 10.0 mi SSW 18.4 mph 21.9 mph N/A Rain Light Rain
5:41 PM 46.4 °F 39.8 °F 42.8 °F 87% 29.79 in 7.0 mi SSW 16.1 mph - N/A Rain Rain
5:44 PM 44.6 °F 36.6 °F 42.8 °F 93% 29.78 in 4.0 mi South 19.6 mph 25.3 mph N/A Rain Heavy Rain
5:47 PM 44.6 °F 36.4 °F 42.8 °F 93% 29.78 in 2.5 mi SSW 20.7 mph 31.1 mph N/A Rain Rain
5:49 PM 44.6 °F 37.2 °F 42.8 °F 93% 29.78 in 2.0 mi SSW 17.3 mph 31.1 mph N/A Rain Rain
5:50 PM 44.6 °F 37.4 °F 42.8 °F 93% 29.78 in 2.0 mi South 16.1 mph 31.1 mph N/A Rain Rain
5:51 PM 44.6 °F 38.1 °F 41.0 °F 87% 29.78 in 2.0 mi South 13.8 mph 31.1 mph N/A Rain Rain
5:52 PM 44.6 °F 38.4 °F 41.0 °F 87% 29.77 in 2.5 mi South 12.7 mph 31.1 mph N/A Rain Rain
5:58 PM 44.4 °F 37.9 °F 41.5 °F 90% 29.80 in 2.5 mi SSW 13.8 mph 21.9 mph 0.04 in Rain Rain
6:01 PM 44.6 °F 38.8 °F 42.8 °F 93% 29.77 in 2.5 mi SSW 11.5 mph 21.9 mph N/A Rain Heavy Rain
6:07 PM 44.6 °F 40.7 °F 42.8 °F 93% 29.77 in 3.0 mi South 6.9 mph - N/A Rain Rain
6:21 PM 44.6 °F 42.2 °F 41.0 °F 87% 29.77 in 6.0 mi South 4.6 mph - N/A Rain Light Rain
6:22 PM 44.6 °F 43.1 °F 42.8 °F 93% 29.76 in 7.0 mi SSE 3.5 mph - N/A Rain Light Rain
6:38 PM 44.6 °F 42.2 °F 42.8 °F 93% 29.76 in 2.5 mi ENE 4.6 mph - N/A Rain Heavy Rain
6:48 PM 44.6 °F 41.4 °F 42.8 °F 93% 29.77 in 3.0 mi East 5.8 mph - N/A Rain Light Rain
6:58 PM 44.1 °F 39.5 °F 43.2 °F 97% 29.79 in 4.0 mi ENE 8.1 mph - 0.12 in Rain Rain
7:04 PM 44.6 °F 40.2 °F 42.8 °F 93% 29.75 in 5.0 mi ENE 8.1 mph - N/A Rain Rain
7:16 PM 44.6 °F 38.8 °F 42.8 °F 93% 29.74 in 8.0 mi NE 11.5 mph - N/A Rain Light Rain
7:38 PM 42.8 °F 38.6 °F 42.8 °F 100% 29.76 in 10.0 mi ENE 6.9 mph - N/A   Mostly Cloudy
7:58 PM 43.5 °F 38.3 °F 42.8 °F 97% 29.77 in 10.0 mi ENE 9.2 mph - 0.02 in   Mostly Cloudy
8:16 PM 42.8 °F 38.6 °F 42.8 °F 100% 29.75 in 10.0 mi NE 6.9 mph - N/A   Mostly Cloudy
8:26 PM 42.8 °F 38.6 °F 42.8 °F 100% 29.75 in 10.0 mi ENE 6.9 mph - N/A   Mostly Cloudy
8:54 PM 42.8 °F 39.3 °F 42.8 °F 100% 29.76 in 10.0 mi East 5.8 mph - N/A   Mostly Cloudy
8:58 PM 42.8 °F 39.3 °F 41.0 °F 93% 29.77 in 10.0 mi East 5.8 mph - N/A   Overcast
9:04 PM 42.8 °F 40.1 °F 41.0 °F 93% 29.77 in 10.0 mi East 4.6 mph - N/A   Overcast
9:23 PM 41.0 °F 37.1 °F 41.0 °F 100% 29.78 in 10.0 mi East 5.8 mph - N/A   Scattered Clouds
9:33 PM 41.0 °F 38.0 °F 41.0 °F 100% 29.78 in 10.0 mi ENE 4.6 mph - N/A   Mostly Cloudy
9:58 PM 41.2 °F 38.2 °F 40.8 °F 99% 29.78 in 10.0 mi NE 4.6 mph - N/A   Mostly Cloudy
10:01 PM 41.0 °F 38.0 °F 41.0 °F 100% 29.78 in 10.0 mi NE 4.6 mph - N/A   Scattered Clouds
10:23 PM 41.0 °F 38.0 °F 39.2 °F 93% 29.79 in 10.0 mi NE 4.6 mph - N/A   Light Drizzle
10:33 PM 41.0 °F 39.0 °F 41.0 °F 100% 29.78 in 10.0 mi NE 3.5 mph - N/A   Clear
10:58 PM 39.9 °F - 39.6 °F 99% 29.78 in 4.0 mi Variable 2.3 mph - 0.00 in   Clear
11:00 PM 39.2 °F - 39.2 °F 100% 29.78 in 2.5 mi ESE 2.3 mph - N/A   Clear
11:01 PM 39.2 °F - 39.2 °F 100% 29.78 in 2.0 mi East 1.2 mph - N/A   Clear
11:02 PM 39.2 °F - 39.2 °F 100% 29.78 in 1.5 mi ESE 1.2 mph - N/A   Clear
11:03 PM 39.2 °F - 39.2 °F 100% 29.78 in 1.2 mi Variable 2.3 mph - N/A   Clear
11:04 PM 39.2 °F - 39.2 °F 100% 29.78 in 1.0 mi Variable 2.3 mph - N/A   Clear
11:06 PM 39.2 °F - 39.2 °F 100% 29.78 in 0.8 mi East 2.3 mph - N/A   Clear
11:07 PM 39.2 °F - 39.2 °F 100% 29.78 in 1.0 mi SE 2.3 mph - N/A   Clear
11:09 PM 39.2 °F - 39.2 °F 100% 29.78 in 1.0 mi SE 2.3 mph - N/A   Clear
11:12 PM 39.2 °F - 39.2 °F 100% 29.78 in 1.2 mi ESE 2.3 mph - N/A   Clear
11:13 PM 39.2 °F - 39.2 °F 100% 29.78 in 1.5 mi ESE 1.2 mph - N/A   Clear
11:15 PM 41.0 °F - 39.2 °F 93% 29.78 in 1.8 mi ESE 1.2 mph - N/A   Clear
11:18 PM 41.0 °F - 41.0 °F 100% 29.78 in 2.0 mi Calm Calm - N/A   Clear
11:20 PM 41.0 °F - 41.0 °F 100% 29.78 in 3.0 mi Calm Calm - N/A   Clear
11:49 PM 39.2 °F - 37.4 °F 93% 29.78 in 2.0 mi Calm Calm - N/A   Clear
11:50 PM 39.2 °F - 37.4 °F 93% 29.78 in 1.8 mi Calm Calm - N/A   Clear
11:51 PM 39.2 °F - 37.4 °F 93% 29.78 in 1.2 mi Variable 1.2 mph - N/A   Clear
11:52 PM 37.4 °F - 37.4 °F 100% 29.78 in 1.2 mi West 2.3 mph - N/A   Clear
11:53 PM 37.4 °F - 37.4 °F 100% 29.78 in 1.0 mi West 2.3 mph - N/A   Clear
11:54 PM 37.4 °F - 37.4 °F 100% 29.78 in 0.8 mi WNW 2.3 mph - N/A   Clear
11:56 PM 37.4 °F - 37.4 °F 100% 29.78 in 0.8 mi WNW 2.3 mph - N/A   Clear
11:58 PM 37.8 °F 35.3 °F 37.6 °F 99% 29.79 in 0.8 mi WNW 3.5 mph - 0.00 in   Clear
11:59 PM 37.4 °F 33.8 °F 37.4 °F 100% 29.78 in 0.5 mi West 4.6 mph - N/A Fog Fog